Location: ?????
(32.7281°N, 34.9563°E)
Time: 17:12:23
(UTC+00:00)

Meteor 2-15 - Pass Details

Date: 29 October 2020
Orbit: 935 x 956 km, 82.5° (Epoch: 01 December)

Event Time Altitude Azimuth Distance (km) Brightness Sun altitude
Rises 15:56:49 0° 185° (S) 3,619 7.7 -14.2°
Reaches altitude 10° 15:59:18 10° 186° (S) 2,676 7.0 -14.7°
Maximum altitude 16:05:27 87° 277° (W) 960 4.5 -16.0°
Drops below altitude 10° 16:11:36 10° 6° (N) 2,683 6.7 -17.3°
Sets 16:14:06 0° 7° (N) 3,629 7.4 -17.8°
